SCP
0 0 0 0 0 0 0 0 0 0 0 0 0 0 0 0 0 0 0 0 0 0 0 0 0 0 0 0 0 0 0 0 0 0 0 0 0 0 0 0 0 0 0
0 0 0 0 0 0 0 0 0 0 0 0 0 0 0 0 0 0 0 0 0 0 0 0 0 0 0 0 0 0 0 0 0 0 0 0 0 0 0 0 0 0 0
0 0 0 0 0 0 0 0 0 0 0 0 0 0 0 0 0 0 0 0 0 0 0 0 0 0 0 0 0 0 0 0 0 0 0 0 0 0 0 0 0 0 0
0 0 0 0 0 0 0 0 0 0 0 0 0 0 0 0 0 0 0 0 0 0 0 0 0 0 0 0 0 0 0 0 0 0 0 0 0 0 0 0 0 0 0
0 0 0 0 0 0 0 0 0 0 0 0 0 0 0 0 0 0 0 0 0 0 0 0 0 0 0 0 0 0 0 0 0 0 0 0 0 0 0 0 0 0 0
0 0 0 0 0 0 0 0 0 0 0 0 0 0 0 0 0 0 0 0 0 0 0 0 0 0 0 0 0 0 0 0 0 0 0 0 0 0 0 0 0 0 0
0 0 0 0 0 0 0 0 0 0 0 0 0 0 0 0 0 0 0 0 0 0 0 0 0 0 0 0 0 0 0 0 0 0 0 0 0 0 0 0 0 0 0
0 0 0 0 0 0 0 0 0 0 0 0 0 0 0 0 0 0 0 0 0 0 0 0 0 0 0 0 0 0 0 0 0 0 0 0 0 0 0 0 0 0 0
0 0 0 0 0 0 0 0 0 0 0 0 0 0 0 0 0 0 0 0 0 0 0 0 0 0 0 0 0 0 0 0 0 0 0 0 0 0 0 0 0 0 0
0 0 0 0 0 0 0 0 0 0 0 0 0 0 0 0 0 0 0 0 0 0 0 0 0 0 0 0 0 0 0 0 0 0 0 0 0 0 0 0 0 0 0
0 0 0 0 0 0 0 0 0 0 0 0 0 0 0 0 0 0 0 0 0 0 0 0 0 0 0 0 0 0 0 0 0 0 0 0 0 0 0 0 0 0 0
0 0 0 0 0 0 0 0 0 0 0 0 0 0 0 0 0 0 0 0 0 0 0 0 0 0 0 0 0 0 0 0 0 0 0 0 0 0 0 0 0 0 0
0 0 0 0 0 0 0 0 0 0 0 0 0 0 0 0 0 0 0 0 0 0 0 0 0 0 0 0 0 0 0 0 0 0 0 0 0 0 0 0 0 0 0
0 0 0 0 0 0 0 0 0 0 0 0 0 0 0 0 0 0 0 0 0 0 0 0 0 0 0 0 0 0 0 0 0 0 0 0 0 0 0 0 0 0 0
0 0 0 0 0 0 0 0 0 0 0 0 0 0 0 0 0 0 0 0 0 0 0 0 0 0 0 0 0 0 0 0 0 0 0 0 0 0 0 0 0 0 0
0 0 0 0 0 0 0 0 0 0 0 0 0 0 0 0 0 0 0 0 0 0 0 0 0 0 0 0 0 0 0 0 0 0 0 0 0 0 0 0 0 0 0
0 0 0 0 0 0 0 0 0 0 0 0 0 0 0 0 0 0 0 0 0 0 0 0 0 0 0 0 0 0 0 0 0 0 0 0 0 0 0 0 0 0 0
0 0 0 0 0 0 0 0 0 0 0 0 0 0 0 -0 0 0 0 0 0 0 0 0 0 0 0 0 0 0 0 0 0 0 0 0 0 0 0 0 0 0 0
0 0 0 0 0 0 0 0 0 0 0 0 0 0 0 0 -0 -0 0 0 0 0 0 0 0 0 0 0 0 0 0 0 0 0 0 0 0 0 0 0 0 0 0
0 0 0 0 0 0 0 0 0 0 0 0 0 0 0 0 0 0 -0 0 0 0 0 0 0 0 0 0 0 0 0 0 0 0 0 0 0 0 0 0 0 0 0
0 0 0 0 0 0 0 0 0 0 0 0 0 0 0 0 0 0 0 0 0 0 0 0 0 0 0 0 0 0 0 0 0 0 0 0 0 0 0 0 0 0 0
0 0 0 0 0 0 0 0 0 0 0 0 0 0 0 0 0 0 0 0 0 0 0 0 0 0 0 0 0 0 0 0 0 0 0 0 0 0 0 0 0 0 0
0 0 0 0 0 0 0 0 0 0 0 0 0 0 0 0 0 0 0 0 0 0 0 0 0 0 0 0 0 0 0 0 0 0 0 0 0 0 0 0 0 0 0
0 0 0 0 0 0 0 0 0 0 0 0 0 0 0 0 0 0 0 0 0 0 0 0 0 0 0 0 0 0 0 0 0 0 0 0 0 0 0 0 0 0 0
0 0 0 0 0 0 0 0 0 0 0 0 0 0 0 0 0 0 0 0 0 0 0 0 0 0 0 0 0 0 0 0 0 0 0 0 0 0 0 0 0 0 0
0 0 0 0 0 0 0 0 0 0 0 0 0 0 0 0 0 0 0 0 0 0 0 0 0 0 0 0 0 0 0 0 0 0 0 0 0 0 0 0 0 0 0
Wind_Speed
3 2 3 4 6 7 7 8 9 9 9 9 10 10 9 10 10 10 10 10 10 10 11 10 10 10 10 10 10 9 9 9 8 8 7 7 7 8 7 7 6 4 7
1 2 3 4 5 7 8 8 9 9 9 9 9 9 9 9 9 10 10 10 10 10 10 10 10 10 10 10 10 10 9 9 8 8 7 7 7 7 7 7 6 4 7
2 2 2 4 6 7 8 8 8 9 9 9 9 9 9 9 9 9 9 10 10 10 10 10 10 10 10 10 10 10 9 10 10 10 10 5 5 7 7 7 6 7 7
2 2 3 4 6 7 7 8 8 9 9 9 9 9 9 9 9 9 9 9 9 9 9 9 9 10 10 10 10 10 10 10 10 10 6 5 4 6 7 7 7 7 7
3 3 3 6 7 7 7 8 8 8 8 9 9 9 9 9 9 9 9 9 9 9 9 9 9 9 10 10 10 10 10 10 10 8 5 4 3 5 7 7 7 6 6
3 3 3 6 8 8 7 8 8 8 8 9 9 9 9 9 9 9 9 8 8 8 8 8 9 9 10 11 11 10 10 10 8 5 4 3 3 5 7 6 7 7 7
3 3 3 6 7 8 8 8 8 8 8 9 9 9 9 9 9 8 8 7 7 7 8 8 8 9 9 10 10 10 10 10 6 4 4 3 3 6 7 7 7 6 7
3 3 3 6 7 7 7 7 8 8 8 9 9 9 9 8 8 7 7 6 7 7 7 8 8 8 8 9 9 10 10 9 6 4 3 3 4 6 7 7 7 6 6
4 4 4 4 5 6 6 7 7 8 9 9 9 9 9 8 8 7 7 6 6 7 7 7 8 8 8 9 9 10 10 9 5 3 4 3 5 7 7 7 7 7 6
4 4 4 4 4 4 4 6 7 8 9 9 10 10 10 9 8 8 7 7 8 7 7 8 8 8 9 9 9 10 10 8 4 4 3 4 8 7 7 7 7 7 7
4 4 4 4 4 3 3 5 6 7 8 9 8 10 8 5 5 5 7 9 9 9 9 9 9 9 9 8 9 9 7 3 3 3 2 6 8 8 8 8 7 7 7
2 2 3 3 3 3 3 4 3 4 5 5 4 5 4 4 4 5 7 10 10 10 9 10 10 9 6 3 5 7 3 4 3 3 3 8 8 8 8 8 8 8 7
2 2 2 2 2 3 3 3 3 3 3 4 5 5 4 4 4 4 3 4 5 7 5 6 6 4 3 3 3 3 3 3 2 2 4 8 9 9 8 8 9 9 8
2 1 2 2 2 2 3 2 3 2 2 3 3 4 4 3 4 3 3 3 3 2 3 3 3 4 4 4 3 3 4 3 3 2 3 8 9 9 9 9 9 9 9
3 1 1 2 2 2 3 2 3 2 2 2 3 3 4 3 3 3 3 3 3 2 3 3 3 4 4 4 4 4 4 4 4 3 3 8 9 9 9 8 9 9 8
3 3 2 2 2 3 2 2 2 2 2 2 2 3 3 3 3 3 3 3 3 3 2 2 3 3 3 3 4 4 3 3 3 3 3 5 9 9 9 9 9 9 9
4 3 3 3 3 3 2 2 2 2 2 2 2 2 3 3 3 2 3 3 2 2 3 3 3 3 3 3 3 3 3 3 3 3 4 3 4 8 10 9 9 9 9
4 4 3 3 3 3 2 2 2 2 2 2 2 2 3 3 3 3 2 2 2 2 2 2 3 3 3 3 2 2 3 3 3 3 3 4 3 4 6 9 9 9 9
5 4 4 3 3 3 2 2 2 2 2 1 2 2 2 3 3 3 2 2 2 3 3 2 3 2 2 2 2 2 3 3 3 3 3 4 4 4 4 7 9 8 9
4 4 4 3 3 3 3 2 2 2 2 2 2 2 2 2 3 3 2 3 3 3 3 3 2 2 2 1 2 3 2 2 2 3 3 3 3 4 4 4 4 6 8
3 4 4 4 3 3 2 2 1 1 1 1 1 2 2 2 2 2 2 2 2 2 2 2 2 3 2 2 2 3 3 2 2 2 2 2 3 3 3 4 3 3 4
5 5 4 4 4 4 3 2 2 2 1 1 1 2 2 2 2 2 2 2 2 2 3 3 2 2 2 2 2 2 3 4 3 3 2 2 3 3 3 4 3 3 3
5 5 5 4 4 4 4 3 3 2 2 1 1 1 1 1 1 1 1 2 2 2 1 1 1 2 1 2 2 2 2 1 3 3 2 2 2 2 2 3 3 3 3
6 5 5 5 4 4 4 4 5 3 2 2 1 1 0 1 1 1 1 1 1 1 1 1 2 1 2 1 1 1 1 2 1 2 3 2 2 2 2 3 3 3 3
5 5 4 4 4 4 4 5 4 3 2 1 1 1 0 0 0 1 1 1 1 1 1 1 1 1 1 1 0 0 1 1 1 1 2 3 3 2 2 2 2 2 3
4 4 4 5 4 4 4 4 5 5 4 3 2 2 1 0 0 1 1 1 1 1 0 0 1 1 1 1 1 0 1 1 1 1 1 2 3 3 2 2 2 2 2
Wind_Direction
309 314 356 43 55 61 63 64 63 65 67 67 66 67 70 74 74 76 77 82 82 80 78 75 74 73 74 74 76 74 72 67 62 62 66 71 73 72 69 69 64 59 69
307 350 16 48 64 68 65 62 61 63 65 68 69 69 69 73 76 78 79 80 79 79 77 74 72 69 70 71 72 70 68 64 59 55 65 71 71 69 67 69 66 66 66
19 7 12 54 74 72 68 65 64 63 63 69 70 69 70 72 77 81 81 81 80 78 76 72 70 69 70 70 67 66 64 62 58 57 58 53 58 66 64 62 62 64 64
36 18 19 62 75 76 71 68 68 66 65 67 68 69 69 72 77 80 82 82 80 79 77 73 70 69 70 68 66 64 63 62 61 59 50 40 41 64 61 59 59 60 59
45 27 27 63 72 77 75 71 71 70 68 67 68 69 68 70 76 79 80 82 80 77 76 75 72 71 70 69 66 64 64 64 62 55 44 37 34 59 61 59 59 59 56
49 33 39 65 70 70 76 71 69 67 67 69 69 68 66 69 74 77 77 81 82 79 77 75 74 73 71 70 67 66 65 63 58 46 36 26 29 55 59 58 58 56 54
57 38 41 67 70 66 65 69 67 66 69 69 69 67 64 65 68 70 73 75 82 82 77 75 76 76 74 71 68 68 67 63 54 42 32 25 36 52 56 56 57 54 50
69 47 44 62 66 64 65 62 63 66 69 70 67 63 60 59 62 64 68 74 79 80 78 76 77 79 75 72 70 68 66 62 55 43 31 25 43 52 54 52 50 48 44
60 54 39 41 48 54 60 64 61 63 66 66 63 60 57 54 56 58 61 69 78 81 80 78 75 77 77 75 71 67 64 57 47 36 36 29 45 54 55 52 49 47 45
55 49 42 39 38 36 38 52 59 63 62 59 56 55 52 46 43 48 55 64 73 79 78 75 72 71 72 72 71 66 60 51 39 32 19 35 50 53 53 52 50 48 46
57 42 41 42 38 35 40 47 51 58 55 54 49 49 44 28 24 33 46 60 67 70 72 72 71 69 68 64 64 63 58 44 35 25 17 44 49 50 49 48 48 49 48
80 52 45 46 42 41 46 45 37 44 43 43 41 38 33 26 25 39 41 52 56 59 63 67 66 63 59 51 50 54 47 40 38 21 31 43 47 49 49 45 45 47 47
139 90 67 59 50 52 48 51 43 41 39 39 42 40 37 32 29 34 37 41 45 50 49 51 53 48 52 53 50 47 46 44 33 19 27 41 44 47 47 43 43 44 45
126 115 93 78 69 63 59 57 56 50 43 39 37 41 45 39 34 33 37 33 43 46 49 46 51 47 50 52 55 54 49 45 32 18 24 38 40 42 43 41 38 39 39
144 146 122 101 88 77 72 63 65 55 52 45 43 40 48 53 42 39 39 40 41 45 56 57 55 53 50 43 44 53 48 43 36 29 16 29 35 37 39 39 38 37 36
172 170 149 118 104 95 85 76 72 61 60 55 46 41 49 56 56 50 42 39 37 34 42 65 63 59 52 47 40 38 38 38 37 32 23 19 26 30 35 37 36 36 35
178 169 157 141 111 103 97 86 77 66 66 60 49 45 48 53 60 63 59 46 31 36 46 62 58 55 54 47 37 28 34 36 36 31 27 21 15 24 30 33 33 34 31
168 166 164 149 128 116 108 93 75 68 70 61 52 51 50 53 63 67 64 51 36 45 53 61 57 55 47 43 32 19 23 29 30 30 32 27 21 17 17 24 28 31 31
170 163 156 146 138 133 120 103 85 73 66 60 61 52 47 54 59 68 62 52 52 56 51 53 49 58 52 38 30 26 20 26 24 31 32 28 24 19 14 13 18 25 31
162 159 156 145 138 129 115 95 77 63 50 53 61 49 47 54 61 69 64 53 57 64 52 49 52 45 50 36 40 28 13 19 26 34 28 24 21 20 19 18 13 13 21
156 158 160 153 151 135 124 122 115 101 52 40 38 42 47 54 63 74 66 62 58 66 60 60 67 55 35 23 49 18 5 20 32 24 22 26 18 14 17 19 17 12 4
178 175 170 171 164 160 157 153 143 138 138 124 43 34 38 53 54 68 73 71 66 64 52 47 60 66 35 29 68 64 7 353 359 11 17 28 14 11 11 10 8 7 3
184 182 179 181 174 168 151 123 98 77 53 45 37 18 0 41 53 55 68 78 78 88 87 41 70 85 66 7 34 104 113 276 317 335 1 15 8 9 357 356 358 355 355
194 183 177 176 173 167 153 149 147 152 173 201 198 198 341 56 69 66 77 81 85 83 85 43 49 63 102 30 357 28 112 166 146 322 332 348 354 356 347 353 352 342 342
183 177 177 170 167 163 165 166 161 165 180 162 139 142 117 33 51 60 87 86 71 63 69 61 57 52 75 113 94 49 45 34 121 165 305 325 337 331 333 330 331 332 330
172 169 168 171 176 168 168 171 172 175 168 149 159 175 200 261 313 6 77 96 88 78 74 47 85 84 68 77 63 111 151 167 217 182 245 298 311 311 318 325 335 327 322